Content
SEND FEEDBACK

Daily
Averages
Monthly
Summary
United States of America

DALTON, WISCONSIN


Home > North America > United States > Wisconsin
Elevation: 887 feet     Latitude: 43 39N     Longitude: 089 11W

WEATHER
 
SELECT A DAY
Number of Records: 78,585;   Date Range: 4/27/07 - 8/12/14
 
SHARE

PRINT THIS DATA

[ ← Previous Day ]
WEATHER ALMANAC - FEBRUARY 13, 2013
[ Next Day → ]
[ °C ]   °F
Weather ElementAverageHighLow
Temperature24.6 °F37.9 °F (2:56 pm)8.6 °F (5:56 am)
Dewpoint18.2 °F25.2 °F (4:56 pm)5 °F (5:56 am)
Humidity78 %96 % (9:56 am)55 % (2:56 pm)
Barometer29.73 in29.84 in (12:56 am)29.63 in (11:56 pm)

Weather ElementAverage
Weather ElementTotal
Precipitation---
Heating Degree Days41.8 (Base 65)
Averaged from 25 records on February 13, 2013
WEATHER CONDITIONS BREAKOUT
WIND DIRECTION BREAKOUT
WEATHER BY HOUR - FEBRUARY 13, 2013
[ °C ]   °F
Local TimeTemperatureDewpointHumidityBarometerVisibilityWind DirectionWind SpeedGust SpeedPrecipitationEventsConditions
12:41 AM10.4 °F6.8 °F85 %29.81 in4.0 miCalmClear
12:56 AM11.1 °F9.1 °F92 %29.84 in6.0 miCalmClear
1:56 AM18.1 °F16.2 °F92 %29.82 in7.0 miCalmClear
2:56 AM13.1 °F10.0 °F88 %29.82 in4.0 miCalmClear
3:56 AM10.0 °F7.2 °F88 %29.80 in8.0 miCalmClear
4:56 AM9.1 °F6.1 °F87 %29.78 in7.0 miCalmClear
5:56 AM8.6 °F5.0 °F85 %29.74 in8.0 miCalmClear
6:56 AM10.0 °F7.2 °F88 %29.78 in8.0 miCalmMostly Cloudy
7:56 AM14.0 °F12.0 °F92 %29.76 in5.0 miCalmMostly Cloudy
8:56 AM20.1 °F18.1 °F92 %29.75 in5.0 miCalmMostly Cloudy
9:56 AM24.1 °F23.0 °F96 %29.75 in7.0 miCalmMostly Cloudy
10:56 AM29.1 °F22.1 °F75 %29.74 in10.0 miCalmMostly Cloudy
11:56 AM32.0 °F21.0 °F64 %29.72 in10.0 miCalmOvercast
12:56 PM34.0 °F22.1 °F62 %29.70 in10.0 miCalmMostly Cloudy
1:56 PM36.9 °F24.1 °F60 %29.69 in10.0 miCalmOvercast
2:56 PM37.9 °F23.0 °F55 %29.70 in10.0 miCalmOvercast
3:56 PM36.9 °F24.1 °F60 %29.70 in10.0 miCalmOvercast
4:56 PM36.0 °F25.2 °F65 %29.70 in10.0 miCalmMostly Cloudy
5:56 PM33.8 °F24.8 °F70 %29.68 in10.0 miCalmOvercast
6:56 PM34.0 °F24.1 °F67 %29.71 in10.0 miCalmMostly Cloudy
7:56 PM31.1 °F24.1 °F75 %29.70 in10.0 miCalmOvercast
8:56 PM30.2 °F24.8 °F80 %29.67 in10.0 miCalmOvercast
9:56 PM32.0 °F25.2 °F76 %29.68 in10.0 miCalmOvercast
10:56 PM32.0 °F25.2 °F76 %29.67 in10.0 miCalmOvercast
11:56 PM30.2 °F24.8 °F80 %29.63 in10.0 miCalmOvercast
Hourly data recorded from KY50, located miles away from Dalton, Wisconsin







STORIES FROM OUR PARTNERS